Wetbulb
42.60 43.97 43.64 43.20 43.11 41.33 39.73 39.63 41.46 42.34 42.06 44.98 47.56 49.72 50.19 52.13 55.76 56.40 58.53 59.41 59.75 60.05 60.10 62.18 63.78 65.57 66.96 67.80 68.46 69.82 69.78 70.43 70.72 71.59 72.16 72.34 72.64 72.90 73.31 73.35 73.12 73.35 73.19 73.59
39.72 43.65 44.42 43.29 44.51 43.57 42.85 41.50 41.43 41.72 42.64 46.88 49.70 49.67 50.93 52.15 54.19 55.12 56.29 59.42 60.90 61.28 61.06 60.94 63.51 64.39 66.37 66.87 66.78 68.16 68.73 69.38 70.78 71.36 71.68 71.83 72.27 73.40 74.02 74.13 74.15 74.59 74.45 73.15
38.95 41.35 41.99 39.34 43.08 42.04 42.37 42.84 43.65 40.71 44.85 46.54 47.53 49.88 50.59 51.96 53.54 56.16 57.47 57.31 60.17 60.79 61.13 61.79 62.49 64.42 64.71 66.07 66.32 66.62 67.29 68.58 70.05 71.05 71.26 72.03 72.38 73.48 74.10 74.44 75.05 74.84 73.75 70.36
34.58 38.42 33.14 43.00 47.79 47.44 46.63 50.45 48.37 46.35 46.44 47.82 49.00 51.05 52.17 52.55 54.66 55.96 57.03 57.64 58.86 60.09 60.59 61.35 61.71 63.12 64.03 64.65 65.86 66.11 66.21 67.34 69.29 70.39 71.27 72.74 73.19 73.44 74.50 75.23 74.15 72.69 70.82 70.41
34.03 35.34 38.69 44.08 47.27 45.62 46.52 49.38 51.00 52.87 54.24 55.30 49.83 50.47 50.15 53.18 55.01 56.73 56.90 58.48 59.25 60.64 61.03 62.17 62.09 62.25 63.67 64.26 65.04 65.58 65.89 66.79 69.60 71.25 71.85 73.30 73.62 74.01 75.18 73.82 71.63 70.66 70.45 70.22
35.49 34.14 34.37 42.11 47.19 50.26 50.20 45.63 52.80 53.30 51.71 52.08 50.19 45.20 48.25 53.89 54.31 55.96 56.74 57.69 58.56 61.32 63.63 65.02 65.73 64.48 63.55 63.53 64.52 65.26 66.43 67.97 71.41 72.73 73.31 73.84 74.47 74.46 72.74 71.67 70.63 69.89 68.24 66.02
35.23 34.97 40.71 44.18 46.35 49.90 43.55 43.96 49.50 53.94 54.29 52.19 48.53 49.09 52.24 54.65 54.29 56.00 56.57 58.73 61.01 62.93 64.17 65.25 69.15 67.91 66.62 66.20 65.62 67.64 70.22 71.80 73.06 73.92 74.28 74.44 72.58 71.81 71.33 70.27 67.52 65.33 63.65 62.84
35.43 34.90 36.10 46.55 45.72 42.37 43.94 46.37 49.13 52.31 53.81 54.82 56.18 57.30 58.00 57.88 55.16 58.35 60.45 63.73 64.06 64.52 66.13 68.96 70.33 69.79 69.31 70.26 72.56 73.39 73.67 73.33 73.25 73.84 73.08 72.14 71.38 71.02 69.98 66.21 63.82 63.06 61.65 59.33
38.73 39.16 45.08 45.53 44.31 46.88 45.77 45.05 47.57 47.98 51.71 54.86 56.75 60.93 62.38 59.73 61.49 62.30 64.30 66.36 66.85 67.19 68.76 70.02 71.43 72.20 71.48 72.13 72.09 72.14 71.80 71.53 71.60 71.96 71.74 72.16 71.28 69.12 66.45 64.66 63.10 61.93 60.69 58.81
40.52 43.12 40.84 44.45 45.86 45.28 46.00 46.78 48.52 50.31 54.11 57.14 57.89 60.67 65.34 65.74 65.46 66.06 67.29 67.74 68.71 69.63 69.98 70.65 71.78 72.34 72.48 72.18 72.18 70.86 70.60 70.65 70.14 68.65 67.24 68.10 68.37 67.81 66.11 64.36 62.47 60.84 59.23 57.31
37.32 39.02 41.73 44.77 44.18 44.71 46.26 47.77 48.62 50.62 55.05 57.21 59.32 62.07 66.30 65.48 65.61 67.27 68.35 68.69 69.54 70.14 70.28 70.20 71.30 71.35 71.68 71.82 71.69 69.68 67.70 65.94 63.30 61.44 59.43 55.15 51.24 56.53 61.94 60.02 62.52 61.60 60.33 58.10
35.72 38.76 38.91 40.26 43.43 45.45 45.00 45.25 47.78 48.99 53.36 56.41 60.69 61.96 66.93 65.34 66.89 67.06 67.23 70.33 70.43 70.24 69.57 69.62 70.46 70.21 71.13 71.66 71.42 68.62 65.67 64.21 62.18 60.97 59.83 59.63 57.88 54.16 47.96 48.07 49.32 48.61 50.24 56.17
37.29 39.89 40.82 42.28 44.05 46.96 44.65 46.07 47.65 50.43 54.99 55.09 59.72 65.52 67.45 66.02 65.78 63.55 68.28 69.88 70.25 70.24 70.23 70.52 70.05 70.36 70.70 71.05 70.57 68.51 64.48 63.75 61.51 61.00 61.55 60.84 61.75 61.09 57.45 50.79 45.24 44.19 44.99 46.98
42.13 40.88 39.64 43.62 41.30 43.94 45.76 46.62 48.36 53.07 55.49 55.97 58.15 64.42 65.85 65.45 66.29 67.02 66.95 68.37 70.07 70.19 70.24 70.53 70.38 69.55 70.26 69.71 67.99 67.01 65.31 58.25 63.57 62.40 63.10 63.04 62.51 61.35 61.82 62.40 59.88 55.52 45.48 46.05
41.71 42.31 40.88 42.26 42.71 43.94 45.42 45.93 48.60 48.72 50.28 53.44 56.92 59.79 64.28 64.79 64.85 65.07 66.50 67.41 68.19 68.51 68.51 69.07 68.71 68.33 69.59 68.87 67.74 66.62 66.55 65.04 62.66 62.22 61.54 58.95 59.42 59.61 58.72 57.79 54.67 50.18 49.63 44.52
42.07 42.63 41.22 41.45 42.35 43.32 43.66 45.62 45.57 45.88 47.61 50.64 54.30 56.87 62.02 63.88 63.66 64.03 64.64 66.62 68.15 67.32 66.30 67.16 67.09 67.70 68.60 67.50 66.18 66.43 64.81 59.18 60.25 60.62 59.19 58.31 57.45 56.03 54.13 52.23 51.28 52.23 53.19 48.91
39.23 39.37 41.33 40.13 41.27 41.78 42.47 43.97 46.38 46.41 46.59 47.53 52.40 57.07 61.64 62.99 62.50 62.92 63.13 64.30 64.65 64.18 64.74 66.16 63.91 65.49 66.96 67.54 67.07 65.33 63.97 62.33 59.77 60.32 58.81 57.67 55.98 54.16 52.33 51.84 50.03 50.24 49.46 47.95
40.98 41.99 42.93 42.35 41.95 41.82 42.72 44.76 45.87 46.05 45.55 47.83 53.05 57.06 60.65 61.91 62.61 61.78 61.84 61.65 61.75 61.86 62.44 62.73 62.88 63.76 64.73 65.60 66.36 65.51 64.36 63.15 62.72 60.72 58.76 56.52 54.40 52.36 51.88 50.70 48.99 48.03 47.51 48.09
41.56 41.38 42.36 42.76 43.06 43.27 42.97 43.88 44.85 45.96 46.96 49.21 54.25 55.32 60.09 61.84 62.26 61.27 60.98 61.29 61.16 60.80 60.90 61.58 60.40 62.25 62.64 62.67 63.96 64.65 64.03 63.25 62.57 61.06 59.83 54.29 53.87 52.33 51.19 50.31 48.87 48.14 48.44 50.20
44.57 43.46 42.64 43.06 43.93 43.86 43.76 44.85 45.83 46.46 47.57 50.22 55.11 57.76 59.59 60.92 60.97 60.64 60.72 60.61 61.37 62.10 61.43 61.27 61.46 61.38 61.57 61.68 60.80 62.71 63.09 62.95 62.40 61.32 59.43 57.23 55.08 52.70 51.65 47.69 49.27 48.32 49.11 50.54
44.43 45.72 46.18 46.15 45.15 44.42 44.83 45.62 46.01 45.91 47.40 53.70 57.09 58.45 59.86 60.84 60.50 60.24 59.30 59.50 59.98 60.10 61.21 58.98 60.07 58.54 58.29 58.77 59.93 60.37 61.65 62.10 61.88 61.38 59.98 58.84 55.81 55.22 53.34 51.77 49.87 48.81 49.02 50.28
44.15 44.62 45.36 46.24 46.48 46.83 45.52 46.24 49.43 52.96 56.21 57.98 59.13 59.88 59.72 59.53 59.72 60.13 61.28 61.01 60.12 54.44 59.49 59.72 59.53 57.53 57.69 56.16 57.58 58.78 59.61 60.98 61.44 61.27 61.06 59.79 58.00 56.49 54.69 53.19 51.19 49.67 49.32 50.23
43.82 44.45 45.39 45.89 45.05 44.46 45.32 48.63 53.94 55.49 56.26 58.21 58.60 59.02 59.55 60.41 60.30 59.26 59.14 60.76 60.18 55.96 60.50 60.07 57.10 55.71 55.15 56.67 57.45 57.73 57.70 58.98 59.55 60.66 61.06 60.73 59.69 58.40 56.85 54.21 53.23 51.35 49.98 50.32
51.10 47.04 44.90 45.78 44.71 47.52 52.53 56.75 57.33 57.59 57.99 57.89 58.59 59.56 59.41 58.68 58.93 60.41 61.28 56.59 54.73 54.70 59.96 59.03 56.34 53.31 52.97 57.37 58.22 58.74 58.77 58.80 59.24 59.88 60.34 54.62 60.63 59.27 57.43 53.84 53.20 52.37 51.31 49.25
48.37 50.77 53.24 53.69 53.80 54.08 54.88 55.49 55.13 55.21 56.35 57.15 58.04 58.76 58.84 59.34 60.85 60.00 60.18 59.36 52.06 56.73 59.80 51.34 51.90 51.54 57.78 57.35 58.28 58.77 59.13 59.22 59.07 59.42 59.55 59.56 58.67 57.89 56.48 55.59 54.59 53.40 52.04 51.44
43.54 44.54 46.51 51.19 52.25 52.97 53.55 54.02 52.78 53.53 53.14 52.79 53.67 56.07 58.10 58.34 57.84 57.89 57.49 55.79 57.75 54.31 55.58 55.26 54.85 57.11 57.87 57.72 58.36 58.69 58.86 58.00 58.34 58.74 58.43 58.98 58.32 57.33 55.33 54.39 53.28 52.48 52.82 51.93
42.51 42.03 43.58 44.99 48.35 53.22 53.24 53.50 53.84 52.89 53.14 53.24 53.18 55.35 56.61 57.51 56.83 57.45 54.82 58.71 58.56 58.18 58.36 58.46 57.65 55.20 54.80 55.88 57.41 57.75 58.76 57.86 55.08 58.61 58.78 58.18 57.70 56.77 56.03 55.35 54.89 53.87 53.67 52.22
MSLP
1000.78 1000.55 1000.45 1000.74 1001.29 1001.91 1002.48 1002.88 1003.09 1002.61 1001.92 1000.86 1000.14 999.47 999.04 998.80 998.69 998.74 999.11 999.81 1000.10 1000.53 1000.96 1001.34 1001.77 1002.20 1002.67 1003.05 1003.77 1004.47 1005.14 1005.66 1005.97 1006.27 1006.69 1007.35 1007.82 1008.18 1008.47 1009.11 1009.44 1009.59 1009.86 1010.45
1001.28 1000.78 1000.57 1000.60 1000.36 1000.74 1001.33 1001.76 1001.84 1001.54 1000.69 1000.13 999.20 999.08 998.72 998.51 998.74 998.92 998.82 998.97 999.28 999.68 1000.22 1000.79 1000.91 1001.21 1001.87 1002.60 1003.11 1003.74 1004.28 1004.68 1005.28 1005.73 1006.08 1006.42 1006.89 1007.39 1007.93 1008.40 1008.77 1009.02 1009.66 1010.12
1002.12 1001.18 1001.11 1000.56 999.82 1000.29 1000.85 1000.88 1000.80 1001.16 1000.34 1000.02 999.62 999.37 998.86 998.10 998.39 998.27 997.82 998.11 998.68 998.86 999.22 999.44 999.80 1000.23 1000.92 1001.75 1002.60 1003.18 1003.68 1004.14 1004.60 1005.12 1005.72 1006.14 1006.52 1006.87 1007.24 1007.64 1008.27 1008.77 1009.58 1010.26
1003.23 1002.25 1001.38 999.49 999.12 999.90 1000.35 1000.68 1000.53 1000.63 1000.35 1000.16 999.15 998.46 998.08 997.80 998.04 997.76 997.50 997.54 997.76 998.09 998.59 998.94 999.46 1000.02 1000.74 1001.41 1002.21 1002.76 1003.12 1003.52 1004.04 1004.61 1005.20 1005.83 1006.35 1006.86 1007.26 1007.48 1008.02 1008.91 1009.57 1010.16
1003.88 1002.81 1001.48 1000.38 1000.72 1000.80 1001.00 1001.78 1001.77 1001.54 1001.26 1000.74 999.66 999.32 998.49 997.75 997.52 997.27 997.09 996.49 996.53 996.94 997.76 998.51 999.12 999.82 1000.44 1001.29 1001.80 1002.41 1002.90 1003.47 1003.98 1004.48 1005.17 1005.70 1006.21 1006.79 1007.22 1007.72 1008.26 1009.14 1009.69 1010.09
1004.61 1003.73 1002.80 1003.04 1002.46 1002.19 1002.23 1002.80 1002.66 1002.53 1002.15 1001.49 1000.30 999.70 998.07 996.53 996.60 996.38 996.41 996.51 996.74 997.00 997.31 997.95 998.77 999.32 1000.14 1000.75 1001.52 1002.16 1002.89 1003.42 1003.78 1004.24 1004.85 1005.40 1005.98 1006.66 1007.34 1007.90 1008.57 1009.34 1009.98 1010.62
1005.52 1004.65 1004.07 1004.40 1003.42 1002.76 1003.50 1004.81 1003.74 1003.24 1002.85 1001.92 1001.01 999.44 998.04 997.27 996.71 996.26 996.02 996.10 996.54 997.00 997.21 997.61 998.28 999.18 999.98 1000.67 1001.50 1002.26 1002.65 1003.01 1003.47 1004.05 1004.65 1005.20 1005.86 1006.55 1007.45 1008.35 1009.19 1010.11 1010.62 1011.64
1006.54 1005.88 1006.12 1004.66 1003.74 1004.44 1006.04 1005.24 1004.48 1003.56 1003.02 1002.32 1001.25 999.83 998.38 997.35 996.72 996.48 996.00 996.31 996.60 997.32 998.09 998.48 998.64 998.95 1000.08 1001.17 1001.99 1002.51 1003.15 1003.68 1004.18 1004.50 1004.82 1005.31 1006.14 1006.99 1007.80 1008.82 1009.95 1010.88 1011.50 1012.27
1007.78 1007.52 1007.18 1006.99 1006.83 1006.65 1006.40 1005.86 1004.91 1003.98 1002.68 1002.00 1001.13 999.57 998.35 997.54 997.22 996.86 996.82 997.04 997.13 997.69 998.43 998.79 999.12 999.45 1000.49 1001.86 1002.47 1003.00 1003.68 1004.47 1005.08 1005.37 1005.63 1005.88 1006.55 1007.64 1008.62 1009.62 1010.47 1011.18 1011.90 1012.77
1008.22 1007.90 1007.53 1007.36 1006.90 1006.64 1006.33 1005.63 1004.67 1003.76 1002.86 1001.80 1000.80 999.62 998.69 998.02 997.97 997.58 997.80 997.82 997.87 998.32 999.04 999.62 999.97 1000.49 1001.26 1002.11 1002.77 1003.48 1004.10 1004.71 1005.42 1006.04 1006.68 1007.03 1007.73 1008.58 1009.33 1010.19 1011.00 1011.54 1012.39 1013.39
1008.79 1008.29 1007.40 1007.36 1007.07 1006.84 1006.00 1005.21 1004.32 1003.42 1002.69 1001.58 1000.62 999.71 999.01 998.60 998.54 998.17 998.33 998.53 998.70 999.11 999.70 1000.20 1000.60 1001.21 1001.96 1002.66 1003.27 1003.84 1004.60 1005.54 1006.34 1007.05 1007.66 1008.40 1009.38 1010.12 1010.37 1010.75 1010.57 1011.35 1012.48 1013.22
1009.30 1009.09 1008.98 1008.26 1007.56 1007.02 1006.32 1005.47 1004.60 1003.57 1001.83 1001.26 1000.89 1000.10 999.44 999.15 998.75 998.71 998.75 999.07 999.43 999.91 1000.30 1000.82 1001.20 1001.77 1002.36 1002.76 1002.96 1003.96 1005.24 1006.22 1007.08 1007.75 1008.40 1008.96 1009.90 1010.90 1011.50 1011.43 1011.41 1011.79 1012.35 1012.84
1009.05 1008.88 1008.70 1008.21 1007.43 1006.94 1006.52 1005.70 1004.84 1003.96 1003.08 1002.14 1001.12 1000.34 1000.05 999.88 999.30 999.16 999.14 999.33 999.86 1000.29 1000.71 1001.20 1001.65 1002.06 1002.61 1003.04 1003.55 1004.32 1005.31 1006.39 1007.33 1008.00 1008.69 1009.29 1010.13 1010.81 1011.80 1012.88 1012.72 1012.98 1013.29 1013.63
1008.53 1008.60 1007.91 1007.75 1007.42 1006.80 1006.46 1005.48 1004.78 1004.28 1003.67 1003.02 1002.00 1000.95 1000.65 1000.36 999.91 999.78 999.96 1000.07 1000.37 1000.81 1001.26 1001.63 1002.06 1002.54 1003.03 1003.38 1004.18 1005.07 1005.72 1006.55 1007.39 1008.25 1008.91 1009.65 1010.28 1010.88 1011.41 1012.04 1012.94 1014.04 1014.49 1014.73
1008.10 1007.99 1007.80 1007.49 1007.42 1006.91 1006.46 1005.70 1004.78 1004.41 1004.24 1003.48 1002.71 1001.94 1001.45 1001.26 1000.99 1000.76 1000.63 1000.53 1000.67 1001.15 1001.65 1002.14 1002.60 1003.11 1003.37 1003.83 1004.59 1005.33 1005.95 1006.81 1007.68 1008.40 1009.11 1009.82 1010.44 1010.99 1011.52 1012.25 1013.16 1014.16 1015.04 1015.68
1007.34 1007.33 1007.32 1007.47 1007.36 1006.90 1006.52 1006.03 1005.54 1004.50 1004.28 1004.11 1003.54 1002.57 1002.09 1001.73 1001.52 1001.32 1001.35 1001.21 1001.25 1001.80 1002.12 1002.51 1003.01 1003.52 1003.78 1004.27 1005.01 1005.82 1006.58 1007.16 1007.88 1008.67 1009.48 1010.15 1010.64 1011.13 1011.85 1012.57 1013.28 1013.93 1014.61 1015.42
1006.94 1006.62 1006.86 1007.08 1007.05 1006.65 1006.49 1006.17 1005.86 1005.03 1004.29 1004.18 1004.12 1003.51 1002.64 1002.32 1002.11 1002.08 1002.08 1001.98 1001.99 1002.26 1002.60 1002.84 1003.43 1003.85 1004.22 1004.60 1005.13 1006.03 1006.86 1007.60 1008.13 1009.02 1009.64 1010.13 1010.62 1011.17 1011.86 1012.49 1013.17 1013.83 1014.45 1015.04
1006.00 1005.65 1005.74 1006.02 1006.40 1006.25 1006.00 1005.97 1005.60 1005.12 1004.63 1004.03 1003.90 1003.85 1003.08 1002.78 1002.66 1002.76 1002.38 1002.48 1002.76 1003.14 1003.34 1003.48 1003.70 1004.07 1004.50 1004.98 1005.41 1006.18 1007.04 1007.85 1008.44 1008.98 1009.62 1010.25 1010.86 1011.34 1011.88 1012.53 1013.22 1013.84 1014.67 1015.27
1005.22 1005.00 1004.94 1005.30 1005.74 1006.00 1005.86 1005.60 1005.45 1004.80 1004.43 1004.10 1003.77 1003.42 1003.20 1002.81 1002.56 1002.87 1002.90 1002.83 1003.00 1003.29 1003.85 1003.84 1004.10 1004.28 1004.62 1005.18 1005.61 1006.24 1007.01 1007.85 1008.61 1009.26 1009.76 1010.34 1011.04 1011.68 1012.18 1012.72 1013.27 1013.90 1014.54 1015.18
1004.65 1004.62 1004.32 1004.34 1004.69 1004.94 1005.17 1004.97 1004.92 1004.61 1003.83 1003.83 1003.51 1003.11 1002.77 1002.66 1002.52 1002.80 1002.99 1002.92 1002.86 1002.90 1003.44 1003.91 1004.14 1004.56 1004.81 1005.25 1005.62 1006.14 1006.84 1007.49 1008.30 1009.22 1009.98 1010.61 1011.17 1011.78 1012.34 1012.81 1013.31 1013.94 1014.57 1014.97
1004.00 1004.22 1004.18 1004.08 1004.04 1004.17 1004.20 1004.31 1004.37 1004.20 1003.19 1003.26 1003.16 1002.71 1002.40 1002.23 1002.50 1002.49 1002.82 1002.86 1003.08 1003.10 1003.48 1003.89 1004.02 1004.55 1005.20 1005.53 1005.90 1006.23 1006.72 1007.30 1007.91 1008.67 1009.68 1010.39 1011.18 1011.82 1012.14 1012.58 1013.29 1013.83 1014.48 1014.91
1003.72 1003.83 1003.63 1003.51 1003.60 1003.55 1003.37 1003.49 1003.52 1003.42 1002.88 1002.30 1002.02 1001.93 1001.89 1002.00 1002.22 1002.42 1002.47 1002.40 1002.83 1003.10 1003.49 1003.76 1004.06 1004.38 1004.96 1005.45 1005.79 1006.18 1006.65 1007.06 1007.60 1008.22 1008.72 1009.59 1010.30 1011.24 1011.97 1012.30 1013.09 1013.75 1014.36 1014.84
1003.51 1003.40 1003.19 1003.06 1003.06 1002.87 1002.65 1002.54 1002.42 1002.39 1002.13 1001.57 1001.23 1001.13 1001.05 1001.12 1001.38 1001.97 1002.34 1002.46 1002.70 1003.11 1003.45 1003.74 1003.92 1004.28 1004.74 1005.09 1005.44 1005.85 1006.38 1006.80 1007.21 1007.81 1008.19 1008.58 1009.24 1009.76 1010.92 1011.56 1012.32 1012.92 1013.81 1014.66
1002.64 1002.54 1002.44 1002.28 1002.16 1002.35 1002.20 1002.01 1001.73 1001.44 1001.16 1000.84 1000.62 1000.70 1000.74 1000.91 1001.33 1001.49 1001.63 1001.85 1002.19 1002.84 1003.34 1003.51 1003.91 1004.26 1004.63 1004.95 1005.10 1005.42 1005.84 1006.35 1006.77 1007.58 1007.96 1008.16 1008.41 1008.95 1009.98 1010.88 1011.70 1012.39 1013.23 1014.10
1003.71 1002.98 1002.60 1002.27 1002.08 1001.87 1001.77 1001.65 1001.71 1001.57 1001.05 1001.09 1001.12 1001.11 1001.10 1001.07 1000.97 1001.24 1001.63 1001.82 1002.15 1002.60 1003.08 1003.50 1003.67 1003.98 1004.15 1004.35 1004.72 1005.12 1005.37 1005.57 1006.18 1006.80 1007.52 1008.26 1008.35 1008.51 1009.44 1010.19 1010.97 1011.66 1012.45 1013.33
1005.24 1004.67 1004.17 1003.13 1003.04 1002.32 1002.11 1002.10 1001.61 1001.60 1001.24 1001.68 1001.88 1001.73 1001.52 1001.56 1001.38 1001.59 1001.73 1001.89 1002.16 1002.56 1003.07 1003.54 1003.76 1003.78 1003.98 1004.11 1004.43 1004.76 1005.25 1005.14 1005.95 1006.49 1007.24 1007.88 1008.48 1008.36 1009.08 1009.81 1010.45 1011.16 1011.88 1012.59
1006.49 1005.93 1004.97 1004.17 1003.51 1002.33 1002.34 1002.27 1001.97 1001.81 1001.59 1002.04 1002.50 1002.99 1002.74 1002.50 1002.56 1002.47 1002.34 1002.22 1002.21 1002.64 1003.17 1003.45 1003.75 1003.90 1004.26 1004.56 1004.48 1004.58 1004.91 1005.16 1005.75 1006.18 1007.11 1007.60 1008.05 1008.24 1008.79 1009.26 1009.94 1010.68 1011.30 1011.82
Wind_Speed
10 6 6 7 8 9 6 7 13 8 9 10 9 10 8 7 6 7 6 9 11 12 12 12 11 10 11 13 11 10 11 12 14 13 11 10 10 11 11 9 8 9 9 7
9 10 8 4 11 15 9 6 5 6 11 9 10 7 8 9 7 10 10 10 11 12 10 11 14 14 12 10 10 11 12 14 12 11 11 13 12 12 10 9 9 9 6 5
13 8 6 9 8 8 6 6 11 9 11 6 7 9 11 12 8 11 10 9 10 12 14 15 16 13 14 11 8 11 12 11 11 11 11 11 10 11 11 10 8 6 6 8
5 8 9 9 9 11 5 3 2 4 6 7 11 12 12 9 7 11 10 8 10 9 9 8 6 8 8 9 10 10 11 10 9 9 9 8 9 9 8 7 8 6 8 8
7 7 4 3 5 3 4 4 9 6 7 7 8 3 9 8 11 11 8 10 10 9 6 8 9 8 9 8 8 8 7 6 6 8 8 9 10 9 6 6 7 8 8 10
2 7 8 2 10 9 6 2 8 8 8 7 4 5 8 5 7 12 11 6 6 6 6 8 8 9 9 8 7 6 5 6 8 9 8 8 8 8 4 8 9 7 8 9
2 3 3 13 17 9 10 3 12 10 9 8 5 6 7 11 8 6 6 7 5 6 6 8 9 10 8 7 6 6 7 8 8 8 8 8 7 8 9 10 10 9 12 8
0 1 2 20 5 7 6 6 9 12 8 10 12 17 14 11 7 7 7 5 6 8 6 6 6 10 10 10 7 8 8 8 8 8 7 8 11 9 11 12 12 10 11 9
2 4 1 4 7 2 4 5 7 9 15 13 13 9 8 3 2 4 6 5 5 8 10 8 9 11 13 7 9 10 10 9 8 8 8 9 12 11 10 9 8 10 9 9
2 1 8 3 3 8 6 7 12 11 13 13 12 11 4 4 4 7 5 5 7 11 12 10 8 10 12 11 11 13 13 11 9 9 9 9 7 8 9 8 8 8 9 8
2 5 7 2 9 14 13 14 16 16 12 15 13 9 4 3 5 7 8 7 7 10 11 11 11 10 10 11 13 13 12 10 9 8 9 10 9 6 5 4 7 10 8 9
3 2 3 8 10 14 14 16 18 17 23 21 14 10 3 3 4 4 9 9 9 11 12 12 12 13 10 10 13 14 11 8 7 8 7 8 8 8 18 10 10 9 12 11
2 4 5 11 12 4 12 16 17 15 14 19 18 9 2 3 3 6 10 11 10 10 10 10 11 10 9 9 11 11 13 11 8 8 7 7 7 8 9 9 19 15 10 8
9 6 10 1 8 12 10 14 14 9 9 13 16 12 7 4 2 6 7 8 8 9 9 9 10 10 9 11 12 11 12 12 9 7 7 7 7 7 7 9 7 5 11 6
16 14 12 13 8 9 6 10 14 12 12 14 14 14 8 6 4 3 5 7 8 9 8 9 10 8 9 11 12 12 11 8 8 7 6 7 7 6 6 7 8 7 6 8
7 8 7 8 9 8 7 10 10 14 12 12 13 17 9 4 1 3 3 4 9 7 6 8 8 7 10 12 13 12 8 13 9 8 7 7 6 7 7 7 7 7 8 8
14 14 8 6 9 9 7 7 6 10 12 11 10 14 8 3 1 2 3 3 5 6 5 7 8 7 9 10 12 10 8 8 12 8 7 7 7 7 7 7 7 7 7 7
14 15 13 8 7 7 7 7 9 11 11 10 10 10 7 5 3 4 4 6 7 6 4 6 7 8 8 9 10 9 8 8 7 8 7 7 6 6 7 8 8 9 8 4
16 19 18 16 10 8 9 9 8 12 11 11 9 12 8 7 5 4 5 7 8 9 5 5 9 9 9 10 11 8 9 8 7 7 7 9 7 7 7 8 8 8 8 7
11 10 16 17 13 10 10 9 10 11 15 10 9 11 8 7 6 7 7 9 9 5 8 8 7 7 8 10 12 8 9 10 9 8 8 8 7 8 7 8 9 9 8 8
15 11 10 8 9 8 11 11 10 12 17 10 10 12 11 7 7 8 8 7 6 8 9 10 8 6 5 7 7 7 8 9 9 9 9 8 8 8 8 9 9 9 9 8
7 8 11 9 8 10 12 12 12 12 13 13 11 10 8 9 8 8 6 6 6 10 7 7 7 10 7 10 6 7 8 9 8 8 9 9 9 9 9 9 9 9 9 9
7 9 10 10 10 13 11 11 10 11 14 13 11 11 12 9 8 9 8 5 5 8 6 6 8 12 13 6 6 6 7 8 8 8 9 10 10 10 9 9 9 9 10 9
4 6 9 9 9 9 8 5 5 7 9 5 4 6 7 6 3 2 2 9 14 11 7 7 9 13 11 5 5 6 6 7 7 7 7 9 9 9 9 9 9 9 10 11
15 14 7 4 5 3 5 6 7 7 7 7 7 4 3 2 4 4 3 5 10 10 7 6 12 13 6 6 6 5 6 7 7 7 7 7 8 9 9 9 10 11 10 11
17 12 10 10 6 3 4 3 6 6 9 10 9 8 7 5 4 4 4 7 8 9 6 4 4 3 4 5 6 7 6 7 7 6 7 7 7 8 8 8 9 10 10 10
11 15 13 12 9 6 6 4 4 7 8 7 8 4 6 7 8 5 3 5 8 8 7 5 5 5 4 2 2 5 5 6 6 7 5 6 7 8 9 9 9 10 10 11
Wind_Direction
192 161 153 155 171 169 160 169 192 221 213 245 247 260 250 251 281 314 250 185 190 192 197 193 191 195 198 204 196 189 194 201 208 210 209 206 201 197 206 200 204 210 215 196
197 200 182 202 189 180 184 156 206 172 240 209 248 277 291 263 276 270 249 223 205 203 190 193 194 198 194 192 184 176 195 203 203 200 195 198 196 198 196 194 196 213 199 158
211 158 115 243 206 166 169 183 179 191 226 192 237 230 242 261 242 254 267 225 205 200 199 203 200 189 193 181 159 183 195 200 199 194 198 201 197 194 191 191 187 196 136 121
150 107 198 233 202 169 159 117 178 264 280 221 217 221 228 225 236 240 246 235 214 203 212 201 176 170 148 153 171 186 197 194 186 182 188 180 181 189 195 187 178 134 125 143
137 177 235 149 31 77 135 126 30 340 320 290 262 300 285 237 218 234 244 237 214 205 165 160 167 154 146 159 171 184 192 182 157 158 163 168 183 191 166 145 120 123 139 129
115 145 186 101 315 310 278 165 13 351 316 316 215 127 248 262 229 228 227 242 230 182 152 152 175 150 150 156 157 177 153 156 159 161 164 172 166 167 107 117 120 118 110 101
192 217 66 346 311 289 159 223 319 330 316 315 305 230 284 306 289 248 224 230 146 178 164 153 143 141 130 128 134 155 153 146 145 146 143 136 115 119 120 114 105 106 102 98
51 154 108 341 13 79 290 296 304 314 307 309 283 283 280 278 262 213 174 153 146 122 99 97 108 105 95 88 96 92 98 107 124 128 120 116 115 116 113 114 110 112 113 100
144 145 187 324 124 197 261 259 292 309 312 317 302 291 303 289 91 91 81 106 83 114 105 76 81 99 96 103 117 104 97 101 101 95 104 122 123 116 109 109 122 123 119 114
67 326 335 211 345 352 327 310 322 326 312 323 318 302 319 72 40 86 80 73 95 93 92 95 94 96 122 130 122 122 117 106 98 97 87 78 84 100 112 121 125 122 124 120
348 337 351 80 351 339 334 341 341 340 341 345 333 323 355 77 92 93 96 88 90 105 114 113 111 107 117 120 123 105 94 91 86 83 88 84 62 49 89 70 143 139 137 140
184 236 217 273 313 319 341 341 338 340 340 350 346 317 17 87 94 102 103 101 99 108 118 124 126 127 124 127 120 114 107 104 106 107 103 105 105 83 44 45 75 89 122 141
240 291 232 277 288 302 332 328 330 335 336 338 346 337 354 304 96 103 98 104 109 113 114 119 124 112 110 111 116 124 124 124 116 114 116 115 115 118 110 58 66 58 70 107
276 314 305 281 305 319 319 317 321 330 343 343 347 353 345 359 50 83 93 110 111 113 112 120 115 109 114 111 110 117 112 108 118 122 118 121 126 125 132 133 127 100 40 62
264 270 259 279 293 295 304 321 331 339 346 345 346 350 345 356 12 54 103 109 105 111 113 120 123 120 122 121 123 129 128 120 123 119 112 118 121 115 110 113 115 119 117 74
249 233 236 258 269 285 309 318 321 318 338 340 339 341 327 332 46 81 75 118 130 142 130 127 124 126 127 128 134 134 115 117 117 122 125 124 123 120 118 120 125 133 129 136
256 264 234 226 254 272 271 284 282 298 314 325 325 325 303 292 37 133 105 65 87 107 120 130 128 120 128 130 132 132 131 133 129 125 134 138 135 135 134 131 133 133 135 146
236 246 245 231 203 240 268 268 287 292 298 301 311 318 281 235 203 223 153 122 103 92 107 129 136 135 130 131 128 129 133 141 143 140 135 133 134 135 137 135 138 136 135 123
236 245 249 245 223 210 251 265 258 281 293 298 303 303 267 227 198 186 166 145 144 140 178 142 140 136 136 139 134 137 139 139 133 134 134 127 132 140 139 140 139 141 147 144
240 244 244 246 239 207 216 243 256 273 279 285 285 289 258 221 189 169 180 174 176 166 148 152 141 136 140 145 137 144 146 146 142 139 143 145 146 147 144 142 145 150 155 151
231 240 237 230 243 228 221 224 236 253 268 266 262 261 238 221 187 172 169 179 198 156 153 155 150 143 144 142 146 150 153 152 152 151 153 153 148 156 157 157 159 159 159 153
213 228 244 244 242 247 236 228 225 240 257 265 263 240 200 199 185 196 230 196 166 168 160 160 163 154 158 153 152 160 165 168 166 160 155 154 157 163 171 162 163 160 159 157
231 238 251 252 243 230 230 228 231 248 256 251 237 211 201 197 183 181 196 200 152 169 162 170 168 164 160 162 167 167 171 174 171 177 173 165 168 162 171 168 166 161 160 162
3 245 234 233 211 216 210 228 236 243 239 242 244 214 184 165 184 200 202 158 158 160 171 168 169 162 160 169 178 175 167 174 168 186 181 173 166 156 155 153 164 160 158 162
11 17 14 69 124 101 125 99 71 51 70 62 50 41 29 331 215 181 184 160 148 162 161 164 169 165 169 163 164 166 166 162 165 163 165 174 169 157 159 165 167 168 163 167
7 10 354 6 31 50 63 102 104 90 73 52 34 17 32 29 51 104 120 132 130 122 121 126 131 135 156 157 160 155 159 136 146 149 159 161 163 150 153 160 161 162 163 162
14 14 8 3 357 357 44 50 72 74 73 76 78 28 25 28 25 27 64 125 129 125 127 116 96 82 61 26 194 160 157 136 141 139 153 166 168 161 163 162 161 163 163 161